Simultaneous Nadir Overpasses (SNOs) Predictions

Prediction of SNOs between METOP-A and TERRA Satellite Orbit:

Table of predicted SNOs for the next 14.0 days since TLE Epoch: 8/2/2015
Index Date (METOP-A) Time (METOP-A) Lat,Lon (METOP-A) SZA (METOP-A ) Date (TERRA) Time (TERRA) Lat,Lon (TERRA) SZA (TERRA ) Distance(km) Time Diff (sec)
1 08/03/2015 15:39:19 -81.35, 173.35 113.32 08/03/2015 15:39:37 -81.36, 173.54 113.28 3.26 18
2 08/03/2015 16:29:58 81.36, -18.73 66.77 08/03/2015 16:29:03 81.36, -18.70 66.75 1.00 55
3 08/06/2015 11:13:41 -81.35,-120.29 112.56 08/06/2015 11:13:52 -81.35,-120.20 112.55 1.40 11
4 08/06/2015 12:04:20 81.36, 47.60 67.52 08/06/2015 12:03:18 81.35, 47.52 67.48 1.28 62
5 08/09/2015 06:48:01 -81.35, -53.57 111.73 08/09/2015 06:48:05 -81.36, -53.62 111.74 0.81 4
6 08/09/2015 07:38:41 81.36, 113.89 68.30 08/09/2015 07:37:31 81.36, 114.08 68.29 3.23 70
7 08/12/2015 01:31:43 81.35,-155.13 69.02 08/12/2015 01:32:53 81.34,-155.09 69.05 0.89 70
8 08/12/2015 02:22:22 -81.36, 13.10 110.87 08/12/2015 02:22:19 -81.36, 12.92 110.89 3.16 3
9 08/14/2015 21:06:04 81.35, -88.52 69.91 08/14/2015 21:07:07 81.34, -88.63 69.92 2.10 63




NCC Satellite Simultaneous Nadir Overpasses (SNOs) Prediction Service
